Location: Cuzcurrita-R�o Tir�n
(42.5415°N, 2.9642°W)
Time: 02:11:21
(UTC+00:00)

CZ-2C R/B - Pass Details

Date: 17 January 2021
Orbit: 704 x 908 km, 98.1° (Epoch: 08 March)

Event Time Altitude Azimuth Distance (km) Brightness Sun altitude
Rises 17:41:48 0° 138° (SE) 3,234 6.0 -6.7°
Reaches altitude 10° 17:44:15 10° 128° (SE) 2,343 5.2 -7.1°
Maximum altitude 17:48:49 33° 66° (ENE) 1,357 3.8 -7.9°
Drops below altitude 10° 17:53:38 10° 5° (N) 2,476 5.4 -8.8°
Sets 17:56:17 0° 356° (N) 3,447 6.2 -9.2°
